Temp
-17 -17 -17 -16 -17 -16 -16 -16 -16 -16 -15 -16 -16 -16 -16 -16 -16 -16 -16 -16 -16 -15 -14 -15 -15 -15 -14 -15 -15 -16 -16 -16 -16 -16 -16 -16 -16 -16
-17 -17 -17 -17 -17 -17 -17 -17 -17 -16 -16 -16 -17 -17 -17 -17 -17 -16 -16 -16 -16 -16 -15 -15 -15 -14 -14 -15 -15 -15 -16 -17 -16 -16 -16 -16 -16 -16
-17 -17 -17 -17 -17 -17 -17 -17 -17 -17 -17 -17 -17 -17 -17 -17 -17 -17 -17 -17 -16 -16 -16 -16 -15 -15 -15 -15 -15 -15 -15 -16 -16 -16 -16 -16 -16 -17
-17 -17 -17 -17 -17 -17 -17 -17 -18 -18 -17 -16 -17 -17 -17 -17 -17 -17 -17 -17 -17 -17 -16 -16 -16 -16 -15 -16 -15 -15 -15 -16 -16 -17 -17 -16 -17 -17
-17 -17 -18 -18 -19 -19 -19 -18 -19 -19 -18 -17 -17 -17 -17 -17 -17 -18 -18 -18 -17 -17 -16 -17 -17 -17 -16 -16 -16 -16 -16 -16 -16 -17 -17 -17 -17 -18
-21 -22 -23 -23 -23 -23 -23 -22 -22 -19 -19 -18 -19 -18 -18 -17 -18 -18 -18 -18 -18 -17 -17 -18 -17 -17 -17 -17 -17 -17 -17 -17 -18 -18 -18 -18 -18 -18
-23 -23 -22 -23 -23 -23 -24 -24 -23 -22 -21 -20 -21 -19 -20 -18 -19 -18 -19 -18 -18 -19 -19 -18 -18 -18 -18 -18 -17 -18 -18 -18 -18 -18 -18 -18 -19 -19
-23 -23 -22 -23 -23 -24 -24 -24 -22 -23 -22 -21 -21 -20 -19 -19 -19 -18 -19 -19 -18 -19 -19 -19 -19 -18 -18 -18 -19 -19 -19 -19 -19 -19 -20 -20 -20 -20
-24 -23 -23 -23 -23 -23 -23 -23 -23 -22 -22 -22 -21 -20 -20 -20 -20 -20 -19 -18 -19 -19 -20 -20 -20 -20 -20 -20 -20 -20 -20 -20 -20 -20 -20 -20 -20 -21
-24 -24 -24 -24 -23 -23 -23 -23 -23 -23 -22 -22 -21 -21 -21 -21 -21 -21 -20 -20 -21 -20 -20 -21 -21 -21 -21 -21 -21 -21 -21 -21 -21 -20 -20 -20 -21 -21
-24 -24 -24 -24 -24 -24 -24 -23 -23 -22 -22 -22 -22 -22 -21 -21 -21 -21 -21 -21 -21 -21 -21 -22 -22 -22 -22 -22 -22 -23 -22 -22 -21 -21 -20 -20 -21 -21
-24 -24 -24 -24 -24 -24 -24 -24 -24 -23 -22 -22 -22 -22 -22 -21 -21 -22 -22 -22 -22 -22 -22 -23 -23 -23 -23 -23 -23 -22 -22 -22 -22 -21 -21 -21 -21 -21
-24 -24 -25 -24 -24 -24 -24 -24 -24 -24 -24 -23 -23 -23 -23 -23 -23 -23 -23 -23 -23 -23 -22 -23 -23 -23 -22 -22 -23 -22 -22 -22 -22 -21 -22 -22 -22 -23
-26 -26 -26 -26 -25 -25 -24 -24 -24 -24 -24 -24 -24 -24 -24 -23 -23 -23 -23 -23 -23 -23 -23 -23 -23 -23 -23 -23 -22 -22 -22 -23 -23 -23 -23 -24 -24 -24
-26 -26 -26 -26 -26 -26 -26 -25 -25 -25 -24 -24 -24 -24 -24 -24 -24 -24 -24 -24 -24 -24 -24 -24 -23 -23 -23 -23 -24 -24 -24 -24 -25 -25 -25 -25 -25 -26
-27 -26 -27 -27 -27 -27 -27 -26 -26 -26 -25 -25 -25 -25 -24 -24 -24 -24 -24 -24 -24 -24 -24 -24 -24 -24 -25 -25 -25 -25 -25 -26 -26 -26 -26 -26 -27 -27
-27 -27 -27 -28 -28 -28 -28 -27 -27 -27 -26 -26 -26 -26 -25 -25 -25 -25 -25 -25 -25 -25 -25 -25 -25 -25 -26 -26 -26 -26 -26 -26 -26 -27 -27 -27 -27 -28
-27 -27 -27 -28 -28 -28 -27 -27 -27 -27 -27 -26 -26 -26 -26 -26 -26 -26 -26 -26 -26 -26 -26 -26 -26 -26 -26 -26 -26 -27 -27 -27 -28 -28 -28 -28 -29 -29
-27 -27 -27 -27 -27 -27 -27 -27 -27 -27 -26 -26 -26 -26 -26 -26 -26 -26 -26 -26 -26 -26 -26 -27 -27 -27 -27 -28 -28 -28 -29 -29 -29 -29 -30 -30 -29 -29
-27 -27 -27 -27 -27 -27 -27 -27 -27 -27 -27 -27 -27 -27 -27 -27 -27 -27 -27 -27 -27 -27 -27 -28 -28 -29 -29 -29 -29 -29 -29 -29 -29 -29 -29 -29 -29 -29
-27 -27 -28 -28 -28 -27 -27 -27 -27 -27 -27 -27 -27 -27 -27 -27 -27 -27 -28 -28 -28 -28 -29 -29 -29 -29 -29 -29 -29 -29 -30 -30 -30 -30 -30 -30 -30 -30
-27 -28 -28 -28 -28 -28 -28 -28 -28 -28 -28 -28 -28 -28 -28 -28 -29 -29 -29 -29 -29 -29 -29 -29 -29 -29 -29 -29 -30 -30 -30 -31 -31 -31 -31 -31 -31 -31
-28 -28 -28 -28 -28 -28 -28 -28 -28 -28 -28 -28 -29 -29 -29 -29 -29 -29 -29 -29 -29 -29 -30 -30 -30 -30 -30 -30 -30 -31 -31 -31 -32 -32 -32 -33 -33 -34
Height
5664 5663 5661 5661 5660 5658 5657 5655 5653 5653 5660 5664 5669 5672 5673 5678 5680 5679 5678 5679 5681 5683 5686 5686 5688 5689 5688 5688 5687 5686 5690 5692 5694 5696 5696 5697 5699 5700
5644 5641 5641 5640 5639 5637 5637 5635 5631 5632 5637 5644 5647 5650 5653 5658 5660 5662 5662 5663 5663 5666 5667 5668 5669 5671 5671 5673 5670 5671 5671 5676 5679 5679 5679 5680 5682 5683
5624 5619 5618 5617 5613 5611 5611 5612 5609 5609 5613 5623 5625 5628 5632 5637 5640 5643 5645 5646 5647 5649 5650 5651 5652 5654 5655 5656 5655 5654 5654 5659 5660 5660 5660 5663 5665 5665
5596 5589 5586 5583 5579 5581 5582 5583 5583 5588 5588 5599 5603 5607 5611 5616 5620 5624 5627 5628 5629 5633 5635 5634 5635 5635 5638 5639 5638 5638 5638 5641 5641 5642 5645 5647 5646 5646
5557 5550 5545 5539 5538 5540 5541 5548 5553 5559 5564 5572 5583 5586 5589 5595 5596 5603 5607 5611 5611 5615 5616 5618 5617 5618 5621 5621 5623 5623 5623 5622 5624 5624 5626 5627 5628 5629
5522 5516 5512 5508 5507 5507 5507 5512 5521 5532 5540 5543 5550 5558 5566 5571 5579 5583 5587 5589 5591 5595 5597 5599 5599 5601 5604 5604 5604 5605 5605 5606 5607 5607 5610 5611 5613 5613
5506 5501 5496 5491 5488 5489 5488 5489 5495 5507 5512 5516 5525 5535 5543 5550 5556 5564 5565 5571 5573 5576 5578 5580 5581 5585 5585 5586 5587 5588 5590 5592 5593 5593 5595 5596 5598 5599
5495 5489 5478 5474 5474 5473 5474 5473 5474 5481 5497 5503 5510 5513 5522 5529 5535 5540 5542 5550 5555 5558 5559 5562 5563 5566 5567 5569 5570 5574 5575 5577 5578 5578 5580 5583 5584 5585
5486 5480 5470 5463 5463 5463 5465 5466 5466 5472 5483 5489 5497 5501 5508 5512 5519 5520 5524 5530 5536 5541 5543 5545 5547 5550 5553 5554 5555 5557 5561 5564 5564 5565 5566 5568 5569 5570
5479 5474 5467 5461 5457 5456 5457 5457 5460 5465 5473 5478 5485 5489 5494 5498 5504 5509 5511 5515 5520 5522 5526 5531 5532 5537 5538 5540 5543 5545 5547 5549 5550 5552 5554 5554 5553 5555
5474 5470 5466 5460 5455 5453 5453 5454 5457 5459 5462 5468 5474 5478 5484 5488 5493 5496 5498 5504 5507 5510 5514 5517 5521 5524 5526 5527 5527 5530 5533 5534 5536 5539 5541 5541 5541 5540
5468 5465 5463 5461 5458 5455 5453 5452 5452 5454 5457 5461 5466 5470 5475 5479 5481 5486 5490 5494 5497 5501 5505 5507 5509 5512 5513 5514 5514 5518 5520 5522 5524 5526 5527 5526 5525 5523
5463 5459 5457 5456 5455 5454 5454 5453 5454 5455 5456 5458 5461 5465 5468 5472 5477 5480 5485 5487 5489 5492 5497 5497 5498 5500 5502 5502 5504 5506 5507 5509 5509 5510 5509 5509 5507 5504
5456 5453 5451 5450 5449 5449 5449 5451 5451 5453 5454 5455 5457 5460 5462 5466 5470 5473 5477 5477 5479 5483 5486 5487 5488 5490 5490 5492 5493 5492 5493 5493 5493 5492 5491 5490 5488 5487
5451 5448 5445 5443 5442 5443 5444 5445 5446 5446 5449 5450 5452 5454 5457 5459 5461 5464 5467 5469 5471 5471 5474 5477 5478 5478 5478 5478 5478 5480 5480 5479 5477 5474 5474 5472 5470 5468
5446 5442 5439 5436 5434 5433 5434 5437 5439 5440 5441 5443 5445 5448 5450 5452 5453 5455 5457 5459 5461 5464 5464 5465 5465 5466 5467 5467 5466 5466 5466 5463 5461 5461 5460 5457 5453 5450
5442 5438 5434 5431 5429 5428 5429 5429 5430 5432 5433 5435 5437 5439 5441 5443 5444 5446 5449 5451 5453 5454 5455 5454 5455 5455 5456 5456 5456 5454 5452 5449 5447 5444 5442 5439 5434 5430
5438 5435 5431 5428 5427 5426 5426 5426 5426 5428 5430 5431 5432 5434 5435 5438 5439 5441 5443 5443 5444 5445 5446 5446 5447 5448 5447 5445 5444 5442 5437 5434 5431 5427 5422 5419 5415 5409
5434 5431 5429 5426 5425 5424 5423 5422 5422 5423 5425 5426 5427 5429 5430 5432 5434 5435 5436 5437 5437 5439 5439 5439 5438 5436 5435 5433 5430 5427 5422 5418 5415 5410 5404 5398 5395 5389
5430 5429 5427 5425 5424 5422 5422 5422 5422 5422 5423 5424 5424 5425 5426 5427 5428 5429 5429 5430 5431 5430 5430 5429 5427 5424 5422 5420 5416 5410 5405 5401 5395 5389 5382 5376 5368 5361
5426 5425 5424 5424 5423 5422 5421 5420 5420 5420 5420 5420 5420 5421 5421 5421 5422 5424 5423 5422 5421 5420 5418 5417 5414 5411 5408 5404 5400 5394 5386 5377 5369 5362 5356 5349 5341 5336
5421 5421 5420 5419 5419 5417 5416 5416 5415 5415 5415 5415 5415 5416 5416 5416 5417 5416 5415 5413 5411 5409 5406 5404 5401 5397 5392 5386 5380 5374 5366 5358 5349 5340 5330 5318 5310 5307
5416 5415 5414 5414 5413 5412 5411 5410 5410 5409 5409 5409 5409 5409 5410 5409 5409 5407 5406 5403 5401 5399 5395 5391 5386 5380 5373 5367 5361 5354 5345 5335 5327 5320 5310 5294 5284 5274
Wind_Speed
68 69 70 71 73 73 75 77 78 78 75 71 68 69 72 70 70 69 66 64 65 67 65 61 52 54 51 60 58 59 70 69 67 61 61 58 56 60
69 71 71 71 72 74 74 75 78 80 76 72 70 71 68 67 65 67 66 64 64 63 60 58 60 60 53 56 56 59 58 68 66 62 63 62 63 64
77 80 82 83 85 87 87 85 87 87 84 79 75 71 69 69 64 64 64 68 66 66 62 64 61 60 59 62 59 57 60 56 57 66 70 69 68 68
90 93 94 96 98 97 97 96 93 92 91 87 86 82 72 72 72 68 70 67 67 72 69 65 61 63 64 68 67 66 63 59 67 73 70 71 67 64
103 104 100 93 86 87 89 88 89 84 92 92 93 86 84 82 77 68 65 67 70 76 73 76 68 68 70 71 76 76 64 67 69 71 69 63 61 59
64 58 57 58 56 60 70 87 91 74 69 71 81 83 87 88 85 72 73 78 75 72 77 78 73 77 80 77 79 77 70 67 63 59 57 58 60 60
47 50 55 58 54 51 55 56 68 88 92 69 75 70 70 80 81 79 81 82 71 78 81 82 74 78 76 78 78 71 63 57 55 53 56 58 54 46
48 49 49 43 44 46 37 43 39 66 74 54 67 65 69 68 72 70 77 78 69 69 73 74 71 74 75 77 69 61 56 51 45 43 44 45 45 47
39 40 38 31 37 33 31 43 27 45 48 56 69 65 61 57 59 59 72 73 67 74 77 74 68 65 61 55 49 46 44 43 41 42 44 47 49 51
27 31 27 23 20 19 24 23 27 39 44 38 43 49 47 48 55 57 57 57 58 57 56 52 48 43 40 39 38 37 38 40 42 46 49 52 53 55
26 26 24 19 14 14 18 20 24 24 26 35 38 38 43 43 47 47 46 48 45 45 40 36 35 34 35 34 32 32 36 38 42 48 52 56 56 57
26 27 26 21 18 13 10 11 13 16 20 25 28 31 39 43 41 38 34 32 35 35 32 32 32 32 33 34 35 36 40 45 49 53 56 60 62 63
26 29 28 24 20 16 15 14 14 14 17 19 23 25 25 27 29 29 29 30 31 33 33 34 34 36 37 37 40 43 46 50 53 57 60 63 65 65
32 29 28 28 25 26 23 20 17 18 17 19 19 20 22 23 25 27 29 29 31 31 33 34 35 37 39 43 45 47 52 55 58 59 59 60 59 61
30 28 27 29 28 26 29 28 26 23 20 19 19 20 24 25 25 24 25 26 28 27 29 34 39 42 45 46 46 48 50 51 52 52 54 55 56 56
26 23 21 22 26 26 26 28 28 28 27 26 26 25 24 25 26 27 28 32 35 38 38 39 40 41 43 43 44 44 45 45 47 49 50 52 53 55
22 21 20 24 20 19 19 20 23 22 24 26 27 27 29 31 29 29 29 29 30 31 32 32 33 35 37 39 41 44 47 50 51 53 55 56 58 60
22 23 21 16 17 15 17 19 20 19 21 21 21 20 22 25 25 25 26 25 25 27 29 31 34 38 40 43 44 46 48 50 52 54 56 59 60 63
24 22 19 19 21 24 23 20 20 22 21 20 20 20 19 19 18 19 21 24 26 30 32 34 37 38 40 41 43 45 47 50 53 56 59 63 66 69
22 19 18 16 11 9 10 10 10 9 10 11 12 14 16 16 19 22 25 28 30 31 32 32 33 35 39 42 45 50 54 56 59 63 66 70 73 76
23 20 16 17 18 17 16 15 14 16 16 17 17 18 19 20 23 25 26 26 26 28 30 33 36 41 45 49 52 55 59 63 68 71 74 77 77 76
22 22 22 23 23 24 23 21 20 19 19 19 19 20 20 19 21 22 22 24 28 32 36 40 44 47 51 55 58 62 65 69 72 76 79 80 79 78
20 21 22 22 20 20 20 20 20 20 19 18 17 17 18 19 21 23 27 31 35 38 42 46 50 54 57 61 65 68 70 74 77 78 78 78 79 78
Wind_Direction
276 275 273 271 270 271 271 271 272 271 269 270 268 266 266 267 267 268 270 273 273 274 274 279 268 279 281 285 274 267 264 263 267 268 268 268 269 268
274 274 272 271 270 269 268 269 270 272 270 268 267 266 267 267 265 265 265 267 267 265 269 268 262 269 278 284 276 268 261 264 264 266 266 268 267 268
274 272 269 267 266 265 266 264 265 266 270 271 269 270 268 269 260 265 266 268 270 267 268 271 263 269 273 279 273 271 260 264 267 262 265 263 267 267
275 273 272 271 270 268 265 262 260 260 264 266 269 266 269 269 268 264 262 264 265 267 269 268 260 270 273 278 277 268 273 272 268 263 268 265 266 265
286 285 283 280 274 267 259 254 251 254 258 260 259 263 261 265 265 260 264 263 265 261 265 266 262 271 272 273 273 270 267 269 266 266 265 264 262 262
288 282 280 276 270 266 260 251 241 236 245 253 250 250 256 259 261 259 260 267 258 258 263 266 268 273 271 270 271 274 272 269 265 261 262 265 264 266
288 287 284 280 272 274 260 257 252 238 241 244 251 248 251 251 252 260 254 258 263 264 263 265 265 267 271 270 271 271 267 261 262 261 263 265 266 261
294 293 295 279 271 268 270 267 263 234 236 254 244 251 251 250 251 248 252 250 257 267 268 262 262 266 265 265 271 263 259 261 260 260 261 261 260 261
296 302 304 287 263 262 260 269 273 248 250 252 247 245 245 245 245 247 250 257 257 257 262 266 261 261 265 260 253 250 253 254 256 259 261 265 270 274
314 313 311 296 275 268 278 274 264 246 243 241 244 246 248 249 244 244 248 252 252 254 258 257 254 250 246 248 250 251 256 258 261 265 267 271 273 275
307 309 320 323 318 292 275 268 258 253 246 243 247 245 245 248 248 252 252 252 251 245 236 235 238 241 242 249 259 269 272 269 268 269 271 272 272 272
304 305 294 302 306 311 298 274 263 251 242 243 244 244 244 246 248 247 244 236 230 234 235 238 242 250 253 257 262 265 268 271 271 271 271 271 272 272
318 306 292 281 277 277 283 274 267 256 242 239 234 230 232 231 228 227 230 232 237 240 243 247 253 257 261 268 272 271 271 271 271 272 271 270 271 275
321 307 297 292 281 270 263 261 260 261 258 247 240 235 232 234 238 238 241 245 249 253 256 257 261 265 268 270 270 271 272 272 274 276 277 277 277 276
318 307 294 283 280 272 264 260 259 255 245 245 244 245 242 238 240 243 249 252 254 259 263 266 267 269 270 275 277 277 277 276 276 276 277 276 275 274
318 317 309 302 300 289 273 262 259 260 259 254 253 252 251 254 254 257 260 262 262 264 266 270 274 276 275 275 276 277 277 278 278 277 277 278 279 279
312 311 316 303 294 293 292 285 283 277 274 273 271 266 263 264 264 262 263 266 269 273 272 273 275 276 276 276 277 277 278 278 278 281 281 281 281 281
302 307 305 302 287 282 287 279 275 275 269 268 265 267 268 265 263 264 265 266 267 269 273 275 275 274 274 276 277 278 280 281 283 285 286 286 287 286
306 301 297 302 282 280 289 289 280 267 268 264 260 266 267 262 259 260 262 267 270 271 274 275 278 278 280 283 286 286 287 288 287 287 287 287 286 285
308 297 296 301 310 302 292 289 291 279 271 268 264 263 263 265 270 273 273 274 274 276 278 279 284 288 291 292 293 293 292 291 291 292 292 292 292 291
309 295 292 286 290 295 294 286 282 280 276 273 272 273 274 274 275 274 274 277 282 286 290 293 296 297 297 296 297 299 301 301 300 299 298 297 295 293
301 293 287 284 284 287 286 280 277 277 275 274 273 272 272 272 273 277 283 290 294 297 299 300 299 301 302 303 304 304 304 303 302 302 302 300 297 295
299 298 293 289 287 287 285 282 279 276 271 270 271 273 276 282 287 292 296 299 300 301 303 304 306 306 307 307 307 306 305 304 304 303 302 300 299 297